Tracking 23764 objects as of 17-Oct-2021
HD Live streaming from Space Station
objects crossing your sky now

FREGAT DEB

Track FREGAT DEB now!
10-day predictions


NORAD ID: 48835
Int'l Code: 2011-037NZ
Perigee: 292.4 km
Apogee: 2,241.6 km
Inclination: 51.5 °
Period: 110.7 minutes
Semi major axis: 7637 km
RCS: Unknown
Launch date: July 18, 2011
Source: Commonwealth of Independent States (former USSR) (CIS)
Launch site: TYURATAM MISSILE AND SPACE COMPLEX (TTMTR)

Note: This is SATELLITE DEBRIS
aabbcc
Your satellite tracking list
Your tracking list is empty




NASA's NSSDC Master Catalog

Two Line Element Set (TLE):
1 48835U 11037NZ  21289.35837617  .00042453  54057-5  10675-2 0  9997
2 48835  51.5328 159.3243 1276001 230.9547 117.0870 13.00573338 25619
Source of the keplerian elements: AFSPC